Zurück zum Katalog

FENGYUN 1C DEB

AktivSSO
NORAD 31155·DEBRIS·🇨🇳 China

Gestartet May 10, 1999 von Taiyuan Satellite Launch Center

Loading…

Nächste Überflüge (nächste 24 Stunden)

TLE

AktuellSource: Space-Track

Epoche: Sep 11, 2026, 16:50 UTC

1 31155U 99025BHH 26254.70191701  .00001479  00000-0  84381-3 0  9993
2 31155  99.0256 329.1949 0086666 318.1009  41.3549 14.09413210994316

Verfolge FENGYUN 1C DEB in Echtzeit mit AllMySat

Download on the App Store